User: anonymous   Login
Location: Caltech
(34.1382°N, 118.1253°W)
Time: 18:50:52
(UTC-07:00)
Language:

Cosmos 1484 Rocket - Orbit

View from above orbital plane
View from above orbital plane
View from above satellite
View from above satellite

Ground track
Ground track

The orbit data is extracted from the following two-line orbital elements,

1 14208U 83075B   17172.93849323 +.00000152 +00000-0 +12864-4 0  9990
2 14208 097.3401 183.3115 0040989 113.8195 246.7340 15.10391938847927
Epoch (UTC): 21 June 2017 22:31:25
Eccentricity: 0.0040989
inclination: 97.3401°
perigee height: 506 km
apogee height: 563 km
right ascension of ascending node: 183.3115°
argument of perigee: 113.8195°
revolutions per day: 15.10391938
mean anomaly at epoch: 246.7340°
orbit number at epoch: 84792

The dashed part of the orbit path shows where the satellite is in the earth's shadow,  

DLR